#timestamp,LO_Frequency,Hit,StdDev 
1592794815.3,286047001.0,N
1592794835.2,286046998.8,N
1592794855.0,286047000.4,N
1592794855.9,286047000.4,N
1592794875.7,286047002.3,N
1592794895.6,286047003.9,Y
1592794915.4,286047000.5,P
1592794935.3,286047002.4,P
1592794955.1,286046999.8,N
1592794975.8,286046999.9,N
1592794995.7,286047001.0,N
1592795015.5,286047000.4,N
1592795035.4,286047000.0,N
1592795055.2,286046999.7,N
1592795075.0,286047001.3,N
1592795075.9,286047001.3,N
1592795095.8,286047001.4,N
1592795115.6,286047004.3,Y
1592795135.5,286047003.6,P
1592795155.3,286047005.4,P
1592795175.1,286047006.1,P
1592795195.9,286047009.4,Y
1592795215.7,286047005.4,P
1592795235.5,286047003.9,P
1592795255.4,286047005.5,P
1592795275.2,286047005.6,Y
1592795295.1,286046999.1,P
1592795296.0,286046999.1,N
1592795315.8,286046996.5,N
1592795335.6,286046997.6,N
1592795355.5,286046998.5,N
1592795375.3,286047002.5,N
1592795395.2,286047000.7,N
1592795415.9,286046999.6,N
1592795435.7,286046996.7,N
1592795455.6,286046997.2,N
1592795475.4,286046997.7,N
1592795495.3,286046997.9,N
1592795515.1,286046995.4,N
1592795516.0,286046995.4,N
1592795535.8,286046993.9,N
1592795555.7,286046996.3,N
1592795575.5,286046998.0,N
1592795595.4,286046999.6,N
1592795615.2,286046995.4,N
1592795635.0,286046995.2,N
1592795635.9,286046995.2,N
1592795655.8,286046995.1,N
1592795675.6,286046991.8,Y
1592795695.4,286046997.5,P
1592795715.3,286046994.9,P
1592795735.1,286046995.4,P
1592795755.9,286046997.7,N
1592795775.7,286046997.3,N
1592795795.5,286046997.1,N
1592795815.4,286046996.8,Y
1592795835.2,286047000.9,P
1592795855.1,286046998.6,N
1592795856.0,286046998.6,N
1592795875.8,286046998.7,N
1592795895.6,286046998.6,N
1592795915.5,286047000.8,N
1592795935.3,286046998.5,N
1592795955.2,286046998.7,N
1592795975.9,286046999.0,N
1592795995.7,286047002.8,N
1592796015.6,286047001.6,N
1592796035.4,286047000.4,N
1592796055.2,286046998.5,N
1592796075.1,286046998.6,N
1592796076.0,286046998.6,N
1592796095.8,286046998.4,N
1592796115.7,286046999.3,N
1592796135.5,286046999.3,N
1592796155.3,286046998.7,N
1592796175.2,286046998.9,N
1592796195.0,286046999.1,N
1592796195.9,286046999.1,N
1592796215.8,286046997.0,N
1592796235.6,286046995.4,Y
1592796255.4,286046997.1,P
1592796275.3,286046997.2,N
1592796295.1,286046997.1,P
1592796315.9,286046999.2,N
1592796335.7,286046996.9,Y
1592796355.5,286047000.3,P
1592796375.4,286046999.9,N
1592796395.2,286046999.3,N
1592796415.0,286046999.3,N
1592796416.0,286046999.3,N
1592796435.8,286046998.5,N
1592796455.6,286046998.2,N
1592796475.5,286046998.3,N
1592796495.3,286046998.5,N
1592796515.1,286046999.4,N
1592796535.9,286046998.1,N
1592796555.7,286046999.0,N
1592796575.6,286046999.5,N
1592796595.4,286046999.6,N
1592796615.2,286046998.9,N
1592796635.1,286046999.0,N
1592796636.0,286046999.0,N
1592796655.8,286046999.4,N
1592796675.7,286046996.8,Y
1592796695.5,286046998.1,P
1592796715.3,286046998.5,P
1592796735.2,286046998.6,P
1592796755.0,286046998.9,Y
1592796755.9,286046998.9,P
1592796775.7,286047000.4,N
1592796795.6,286047000.4,N
1592796815.4,286047000.0,N
1592796835.3,286047000.1,N
1592796855.1,286047002.6,Y
1592796875.8,286047000.3,P
1592796895.7,286047001.9,P
1592796915.5,286047002.6,N
1592796935.4,286047002.6,N
1592796955.2,286047000.0,N
1592796975.0,286047000.7,N
1592796975.9,286047000.7,N
1592796995.8,286047001.0,N
1592797015.6,286047000.5,N
1592797035.5,286047000.5,N
1592797055.3,286047000.1,N
1592797075.1,286047000.4,N
1592797095.9,286047002.7,N
1592797115.7,286047000.1,N
1592797135.5,286047000.7,N
1592797155.4,286047001.0,N
1592797175.2,286047000.9,N
1592797195.1,286046998.2,N
1592797196.0,286046998.2,N
1592797215.8,286046998.8,N
1592797235.6,286046998.2,N
1592797255.5,286046998.4,N
1592797275.3,286046998.7,N
1592797295.1,286047000.8,N
1592797315.9,286046998.8,N
1592797335.7,286047001.1,N
1592797355.6,286046998.3,N
1592797375.4,286046998.1,N
1592797395.2,286046999.9,N
1592797415.1,286046998.4,N
1592797416.0,286046998.4,N
1592797435.8,286047001.2,N
1592797455.7,286047000.0,N
1592797475.5,286046998.9,N
1592797495.3,286046999.6,N
1592797515.2,286046998.4,N
1592797535.0,286046998.7,N
1592797535.9,286046998.7,N
1592797555.7,286046996.7,N
1592797575.6,286046999.1,N
1592797595.4,286046998.2,N
1592797615.3,286047000.7,N
1592797635.1,286047000.2,N
1592797655.8,286047000.5,N
1592797675.7,286047000.7,N
1592797695.5,286047000.5,N
1592797715.4,286047000.1,N
1592797735.2,286047000.5,N
1592797755.0,286047000.5,N
1592797755.9,286047000.5,N
1592797775.8,286047000.7,N
1592797795.6,286047000.4,N
1592797815.5,286047000.2,N
1592797835.3,286047000.5,N
1592797855.1,286047000.6,N
1592797875.9,286047001.0,N
1592797895.7,286047000.1,N
1592797915.5,286047000.7,N
1592797935.4,286046999.8,N
1592797955.2,286047000.2,N
1592797975.1,286047002.5,N
1592797976.0,286047002.5,N
1592797995.8,286046999.9,N
1592798015.6,286047002.2,N
1592798035.5,286047001.3,N
1592798055.3,286047002.5,N
1592798075.2,286047000.1,N
1592798095.9,286046998.7,N
1592798115.7,286046990.7,Y
1592798135.6,286047004.4,P
1592798155.4,286047001.7,N
1592798175.3,286047002.3,N
1592798195.1,286047002.2,N
1592798196.0,286047002.2,N
1592798215.8,286046999.0,N
1592798235.7,286046998.6,N
1592798255.5,286047000.5,N
1592798275.3,286047000.5,N
1592798295.2,286047001.0,N
1592798315.0,286047000.6,N
1592798315.9,286047000.6,N
1592798335.8,286047000.1,N
1592798355.6,286046998.8,N
1592798375.4,286047000.8,N
1592798395.3,286046998.1,N
